• In Belgium
  • List of Countries
  • For 7 days
  • Water Temperature
  • Satellite Maps
  • Weather Map
  • Weather Widgets
  • user-avatar
    Login

    Hourly Weather Annaba

    Today, 22 January, Monday

    Time Temperature Precipitation Wind Pressure Humidity
    00:00 +12°C° 0 mm 8 mps 764 mmHg 88%
    01:00 +12°C° 0 mm 9 mps 764 mmHg 88%
    02:00 +12°C° 0 mm 8 mps 764 mmHg 87%
    03:00 +12°C° 0 mm 8 mps 764 mmHg 87%
    04:00 +12°C° 0 mm 7 mps 764 mmHg 86%
    05:00 +11°C° 0 mm 7 mps 765 mmHg 85%
    06:00 +11°C° 0 mm 7 mps 765 mmHg 84%
    07:00 +11°C° 0 mm 6 mps 765 mmHg 84%
    08:00 +12°C° 0 mm 7 mps 765 mmHg 79%
    09:00 +15°C° 0 mm 7 mps 765 mmHg 75%
    10:00 +16°C° 0 mm 7 mps 765 mmHg 70%
    11:00 +16°C° 0 mm 8 mps 765 mmHg 72%
    12:00 +16°C° 0 mm 8 mps 765 mmHg 75%
    13:00 +17°C° 0 mm 8 mps 765 mmHg 77%
    14:00 +17°C° 0 mm 8 mps 765 mmHg 77%
    15:00 +17°C° 0 mm 8 mps 765 mmHg 77%
    16:00 +17°C° 0 mm 7 mps 765 mmHg 77%
    17:00 +16°C° 0 mm 6 mps 765 mmHg 81%
    18:00 +14°C° 0 mm 6 mps 765 mmHg 86%
    19:00 +13°C° 0 mm 5 mps 766 mmHg 91%
    20:00 +13°C° 0 mm 5 mps 766 mmHg 90%
    21:00 +13°C° 0 mm 5 mps 766 mmHg 89%
    22:00 +12°C° 0 mm 4 mps 766 mmHg 89%
    23:00 +12°C° 0 mm 4 mps 766 mmHg 86%

    Tomorrow, 23 January, Tuesday

    Time Temperature Precipitation Wind Pressure Humidity
    00:00 +12°C° 0 mm 4 mps 766 mmHg 84%
    01:00 +12°C° 0 mm 4 mps 766 mmHg 82%
    02:00 +12°C° 0 mm 5 mps 766 mmHg 81%
    03:00 +12°C° 0 mm 5 mps 766 mmHg 79%
    04:00 +12°C° 0 mm 5 mps 766 mmHg 78%
    05:00 +10°C° 0 mm 5 mps 766 mmHg 78%
    06:00 +10°C° 0 mm 5 mps 766 mmHg 78%
    07:00 +10°C° 0 mm 5 mps 766 mmHg 79%
    08:00 +13°C° 0 mm 5 mps 766 mmHg 75%
    09:00 +14°C° 0 mm 5 mps 766 mmHg 72%
    10:00 +16°C° 0 mm 5 mps 767 mmHg 68%
    11:00 +17°C° 0 mm 5 mps 766 mmHg 67%
    12:00 +17°C° 0 mm 5 mps 766 mmHg 65%
    13:00 +19°C° 0 mm 5 mps 766 mmHg 63%
    14:00 +19°C° 0 mm 5 mps 766 mmHg 65%
    15:00 +19°C° 0 mm 5 mps 766 mmHg 66%
    16:00 +17°C° 0 mm 5 mps 766 mmHg 68%
    17:00 +17°C° 0 mm 4 mps 767 mmHg 75%
    18:00 +14°C° 0 mm 3 mps 767 mmHg 83%
    19:00 +13°C° 0 mm 3 mps 767 mmHg 91%
    20:00 +12°C° 0 mm 3 mps 768 mmHg 92%
    21:00 +13°C° 0 mm 2 mps 768 mmHg 92%
    22:00 +13°C° 0 mm 2 mps 768 mmHg 93%
    23:00 +13°C° 0 mm 2 mps 769 mmHg 93%

    Day after tomorrow, 24 January, Wednesday

    Time Temperature Precipitation Wind Pressure Humidity
    00:00 +12°C° 0 mm 2 mps 769 mmHg 92%
    01:00 +12°C° 0 mm 2 mps 769 mmHg 92%
    02:00 +12°C° 0 mm 2 mps 769 mmHg 92%
    03:00 +12°C° 0 mm 2 mps 768 mmHg 92%
    04:00 +12°C° 0 mm 2 mps 768 mmHg 91%
    05:00 +10°C° 0 mm 2 mps 768 mmHg 91%
    06:00 +10°C° 0 mm 2 mps 769 mmHg 91%
    07:00 +10°C° 0 mm 2 mps 769 mmHg 90%
    08:00 +13°C° 0 mm 2 mps 769 mmHg 85%
    09:00 +14°C° 0 mm 1 mps 769 mmHg 79%
    10:00 +16°C° 0 mm 1 mps 769 mmHg 73%
    11:00 +18°C° 0 mm 1 mps 769 mmHg 68%
    12:00 +19°C° 0 mm 1 mps 769 mmHg 63%
    13:00 +20°C° 0 mm 1 mps 769 mmHg 58%
    14:00 +20°C° 0 mm 1 mps 768 mmHg 59%
    15:00 +19°C° 0 mm 2 mps 768 mmHg 60%
    16:00 +19°C° 0 mm 3 mps 768 mmHg 62%
    17:00 +17°C° 0 mm 3 mps 768 mmHg 70%
    18:00 +14°C° 0 mm 3 mps 768 mmHg 78%
    19:00 +12°C° 0 mm 3 mps 768 mmHg 86%
    20:00 +12°C° 0 mm 3 mps 769 mmHg 86%
    21:00 +12°C° 0 mm 3 mps 769 mmHg 87%
    22:00 +12°C° 0 mm 3 mps 769 mmHg 88%
    23:00 +12°C° 0 mm 3 mps 769 mmHg 86%

    25 January, Thursday

    Time Temperature Precipitation Wind Pressure Humidity
    00:00 +12°C° 0 mm 2 mps 768 mmHg 85%
    01:00 +12°C° 0 mm 2 mps 768 mmHg 84%
    02:00 +12°C° 0 mm 2 mps 768 mmHg 83%
    03:00 +12°C° 0 mm 2 mps 768 mmHg 81%
    04:00 +12°C° 0 mm 2 mps 767 mmHg 80%
    05:00 +12°C° 0 mm 2 mps 767 mmHg 79%
    06:00 +12°C° 0 mm 2 mps 767 mmHg 78%
    07:00 +10°C° 0 mm 2 mps 767 mmHg 77%
    08:00 +13°C° 0 mm 2 mps 767 mmHg 72%
    09:00 +15°C° 0 mm 2 mps 767 mmHg 67%
    10:00 +17°C° 0 mm 2 mps 767 mmHg 62%
    11:00 +18°C° 0 mm 2 mps 766 mmHg 57%
    12:00 +20°C° 0 mm 2 mps 766 mmHg 52%
    13:00 +22°C° 0 mm 1 mps 765 mmHg 48%
    14:00 +22°C° 0 mm 1 mps 765 mmHg 48%
    15:00 +21°C° 0 mm 2 mps 764 mmHg 47%
    16:00 +21°C° 0 mm 2 mps 764 mmHg 47%
    17:00 +19°C° 0 mm 2 mps 764 mmHg 55%
    18:00 +17°C° 0 mm 2 mps 764 mmHg 62%
    19:00 +15°C° 0 mm 2 mps 764 mmHg 69%
    20:00 +15°C° 0 mm 2 mps 764 mmHg 68%
    21:00 +15°C° 0 mm 2 mps 764 mmHg 67%
    22:00 +14°C° 0 mm 2 mps 764 mmHg 66%
    23:00 +14°C° 0 mm 2 mps 764 mmHg 65%

    26 January, Friday

    Time Temperature Precipitation Wind Pressure Humidity
    00:00 +14°C° 0 mm 2 mps 764 mmHg 65%
    01:00 +13°C° 0 mm 3 mps 764 mmHg 64%
    02:00 +12°C° 0 mm 3 mps 763 mmHg 65%
    03:00 +12°C° 0 mm 3 mps 763 mmHg 66%
    04:00 +12°C° 0 mm 3 mps 763 mmHg 67%
    05:00 +12°C° 0 mm 3 mps 763 mmHg 68%
    06:00 +11°C° 0 mm 3 mps 763 mmHg 68%
    07:00 +11°C° 0 mm 3 mps 763 mmHg 69%
    08:00 +13°C° 0 mm 3 mps 763 mmHg 66%
    09:00 +15°C° 0 mm 2 mps 763 mmHg 62%
    10:00 +17°C° 0 mm 2 mps 763 mmHg 59%
    11:00 +18°C° 0 mm 2 mps 762 mmHg 55%
    12:00 +19°C° 0 mm 2 mps 762 mmHg 52%
    13:00 +20°C° 0 mm 2 mps 761 mmHg 48%
    14:00 +20°C° 0 mm 2 mps 761 mmHg 50%
    15:00 +20°C° 0 mm 2 mps 761 mmHg 52%
    16:00 +20°C° 0 mm 2 mps 760 mmHg 55%
    17:00 +18°C° 0 mm 2 mps 760 mmHg 63%
    18:00 +16°C° 0 mm 2 mps 761 mmHg 70%
    19:00 +15°C° 0 mm 2 mps 761 mmHg 78%
    20:00 +14°C° 0.1 mm 2 mps 761 mmHg 79%
    21:00 +14°C° 0.1 mm 1 mps 761 mmHg 80%
    22:00 +14°C° 0.1 mm 1 mps 761 mmHg 81%
    23:00 +13°C° 0.2 mm 2 mps 761 mmHg 84%

    27 January, Saturday

    Time Temperature Precipitation Wind Pressure Humidity
    00:00 +12°C° 0.2 mm 3 mps 761 mmHg 87%
    01:00 +12°C° 0.2 mm 3 mps 761 mmHg 90%
    02:00 +12°C° 0.1 mm 3 mps 761 mmHg 91%
    03:00 +12°C° 0.1 mm 3 mps 761 mmHg 92%
    04:00 +12°C° 0.1 mm 3 mps 761 mmHg 94%
    05:00 +11°C° 0.1 mm 3 mps 761 mmHg 94%
    06:00 +12°C° 0.1 mm 2 mps 761 mmHg 94%
    07:00 +12°C° 0.1 mm 2 mps 761 mmHg 94%
    08:00 +13°C° 0.2 mm 2 mps 761 mmHg 92%
    09:00 +13°C° 0.2 mm 2 mps 761 mmHg 89%
    10:00 +13°C° 0.2 mm 3 mps 761 mmHg 86%
    11:00 +14°C° 0.2 mm 3 mps 761 mmHg 84%
    12:00 +14°C° 0.2 mm 3 mps 760 mmHg 81%
    13:00 +15°C° 0.2 mm 4 mps 760 mmHg 79%
    14:00 +14°C° 1.1 mm 4 mps 760 mmHg 79%
    15:00 +14°C° 1.1 mm 4 mps 760 mmHg 80%
    16:00 +14°C° 1.1 mm 4 mps 759 mmHg 80%
    17:00 +13°C° 1.6 mm 4 mps 760 mmHg 84%
    18:00 +12°C° 1.6 mm 4 mps 760 mmHg 88%
    19:00 +11°C° 1.6 mm 3 mps 760 mmHg 92%
    20:00 +10°C° 0.6 mm 3 mps 760 mmHg 92%
    21:00 +10°C° 0.6 mm 3 mps 761 mmHg 93%
    22:00 +10°C° 0.6 mm 3 mps 761 mmHg 93%
    23:00 +10°C° 0.1 mm 3 mps 761 mmHg 92%
    Show more